FW7807 Weather Reports


time (UTC)temp
C
wind
direction
speed
KPH
gust
KPH
rain 1hr
cm
rain 24hr
cm
rain mn
cm
humidity
%
barometer
mb
20260504081544 17 165 1.6 6.4 0.00 0.10 0.10 91 1012.5
20260504044536 16 71 3.2 6.4 0.00 0.05 0.05 90 1011.9
20260504043102 16 70 3.2 8.0 0.00 0.05 0.05 90 1011.8
20260504041541 16 78 4.8 8.0 0.00 0.05 0.05 90 1011.8
20260504040059 16 80 4.8 14.5 0.00 0.05 0.05 90 1012.0
20260504034546 16 61 3.2 12.9 0.00 0.05 0.05 90 1011.9
20260504033037 16 71 4.8 9.7 0.00 0.05 0.05 90 1012.2
20260504031544 16 63 3.2 11.3 0.00 0.05 0.05 90 1012.2
20260504030055 16 59 4.8 9.7 0.00 0.05 0.05 90 1012.3
20260504024541 17 58 8.0 14.5 0.00 0.05 0.05 89 1012.3
20260504023041 17 74 4.8 9.7 0.00 0.05 0.05 89 1012.5
20260504021545 17 30 4.8 9.7 0.00 0.05 0.05 89 1012.4
20260504020038 17 57 4.8 8.0 0.03 0.05 0.05 89 1012.5
20260504014536 17 55 3.2 6.4 0.03 0.05 0.05 89 1012.5
20260504013050 18 0 0.0 4.8 0.00 0.03 0.03 89 1012.7
20260504011541 18 0 0.0 4.8 0.00 0.03 0.03 88 1012.8
20260504010050 18 0 0.0 0.0 0.00 0.00 0.00 88 1012.7
20260504004543 17 0 1.6 3.2 0.00 0.00 0.00 95 1012.8
20260504003035 17 0 0.0 0.0 0.00 0.00 0.00 95 1012.9
20260504001539 17 0 0.0 6.4 0.00 0.00 0.00 94 1013.0
20260504000040 17 46 3.2 6.4 0.00 0.00 0.00 94 1012.9
20260503234542 17 46 3.2 9.7 0.00 0.00 0.00 93 1013.0
20260503233038 17 60 6.4 9.7 0.00 0.00 0.00 92 1013.1
20260503231536 17 34 1.6 6.4 0.00 0.00 0.00 92 1013.2
20260503230050 17 60 6.4 9.7 0.00 0.00 0.00 92 1013.2
20260503224536 17 47 4.8 9.7 0.00 0.00 0.00 92 1013.3
20260503223051 17 44 3.2 8.0 0.00 0.00 0.00 91 1013.4
20260503221546 18 58 4.8 9.7 0.00 0.00 0.00 91 1013.4
20260503220039 18 64 3.2 6.4 0.00 0.00 0.00 90 1013.5
20260503214550 18 52 4.8 9.7 0.00 0.00 0.00 90 1013.7
20260503213046 18 72 6.4 11.3 0.00 0.00 0.00 90 1013.8
20260503211541 18 98 4.8 14.5 0.00 0.00 0.00 91 1013.6
20260503210039 18 69 4.8 12.9 0.00 0.00 0.00 91 1013.7
20260503204543 18 80 6.4 16.1 0.00 0.00 0.00 90 1013.7
20260503203037 18 115 6.4 12.9 0.00 0.00 0.00 90 1013.5
20260503201541 18 71 3.2 14.5 0.00 0.00 0.00 90 1013.4
20260503200036 17 132 8.0 14.5 0.00 0.00 0.00 90 1013.2
20260503194546 18 91 6.4 12.9 0.00 0.00 0.00 90 1012.8
20260503193039 17 122 6.4 12.9 0.00 0.00 0.00 90 1012.5
20260503191538 18 115 6.4 16.1 0.00 0.00 0.00 89 1012.3
20260503190043 18 49 6.4 16.1 0.00 0.00 0.00 89 1012.0
20260503184536 18 84 9.7 17.7 0.00 0.00 0.00 88 1012.0
20260503183040 18 74 9.7 19.3 0.00 0.00 0.00 87 1011.9
20260503181557 18 81 11.3 20.9 0.00 0.00 0.00 87 1011.8
20260503180048 18 63 12.9 19.3 0.00 0.00 0.00 86 1011.8
20260503174541 18 103 11.3 20.9 0.00 0.00 0.00 85 1011.8
20260503173040 18 58 8.0 19.3 0.00 0.00 0.00 86 1011.6
20260503171536 18 76 11.3 20.9 0.00 0.00 0.00 84 1011.4